Regional Weather Roundup
Issued by NWS Boston, MA

Current Version | Previous Version | Text Only | Print | Product List | Glossary On
Versions: 1 2 3 4 5 6 7 8 9 10 11 12 13 14 15 16 17 18 19 20 21 22 23 24 25 26 27 28 29 30 31 32 33 34 35 36 37 38 39 40 41 42 43 44 45 46 47 48 49 50
000 ASUS41 KBOX 011810 RWRBOX REGIONAL WEATHER ROUNDUP NATIONAL WEATHER SERVICE TAUNTON MA 200 PM EDT MON SEP 01 2014 NOTE: "FAIR" INDICATES FEW OR NO CLOUDS BELOW 12,000 FEET WITH NO SIGNIFICANT WEATHER AND/OR OBSTRUCTIONS TO VISIBILITY. THE FOLLOWING OBSERVATION LOCATIONS DO NOT REPORT PRESENT WEATHER...PROVINCETOWN... SMITHFIELD...BLOCK ISLAND...KEENE...AND OXFORD. MAZALL-011900- EASTERN MASSACHUSETTS CITY SKY/WX TMP DP RH WIND PRES REMARKS BOSTON NOT AVBL BEVERLY CLOUDY 86 69 56 VRB3 29.93F HX 90 LAWRENCE PTSUNNY 86 66 51 W6 29.96S BEDFORD MOSUNNY 85 67 54 W7 29.93S BLUE HILL N/A 88 67 49 SW8G18 29.96S HX 91 NORWOOD MOSUNNY 87 68 52 W12 29.93S HX 90 MARSHFIELD MOSUNNY 84 72 65 SE9 29.94F PLYMOUTH MOSUNNY 85 68 56 SW10 29.95S TAUNTON MOSUNNY 86 70 58 SW8 29.94S HX 90 NEW BEDFORD MOSUNNY 83 71 67 SW12 29.95S $$ MAZALL-011900- CAPE COD AND THE ISLANDS CITY SKY/WX TMP DP RH WIND PRES REMARKS FALMOUTH PTSUNNY 77 72 83 W13G21 29.97S HYANNIS PTSUNNY 78 72 81 SW14 29.95F CHATHAM CLOUDY 78 72 81 SW8 29.97F PROVINCETOWN MOSUNNY 81 72 74 S12 29.96S NANTUCKET PTSUNNY 74 69 85 SW10 29.98S MARTHAS VNYRD CLOUDY 77 71 82 W14 29.97F $$ MAZALL-011900- CENTRAL AND WESTERN MASSACHUSETTS CITY SKY/WX TMP DP RH WIND PRES REMARKS WORCESTER PTSUNNY 80 66 62 W7 30.00S 6HR MIN TEMP: 70; 6HR MAX TEMP: 81; FITCHBURG PTSUNNY 86 66 51 W7 29.96F ORANGE PTSUNNY 83 67 58 VRB3 29.97F SPRINGFIELD PTSUNNY 82 70 65 VRB6 29.95F WESTFIELD MOSUNNY 85 70 60 S9 29.95F NORTH ADAMS MOSUNNY 82 65 56 W5 29.98S PITTSFIELD MOSUNNY 81 66 60 W5 30.00S $$ RIZALL-011900- RHODE ISLAND CITY SKY/WX TMP DP RH WIND PRES REMARKS PROVIDENCE PTSUNNY 86 71 60 W7 29.95F HX 91 6HR MIN TEMP: 74; 6HR MAX TEMP: 86; 6HR PCP: TRACE; NEWPORT MOSUNNY 80 71 74 S10 29.97S BLOCK ISLAND MOSUNNY 77 70 78 SW12 29.99F SMITHFIELD PTSUNNY 82 68 61 W7 29.96F WESTERLY MOSUNNY 81 71 71 SW7 29.98S $$ CTZALL-011900- CONNECTICUT CITY SKY/WX TMP DP RH WIND PRES REMARKS BRADLEY INTL PTSUNNY 85 69 58 VRB6 29.95F 6HR MIN TEMP: 72; 6HR MAX TEMP: 87; HARTFORD MOSUNNY 83 69 62 CALM 29.94F BRIDGEPORT PTSUNNY 85 71 63 SW9 29.96F HX 90 DANBURY MOSUNNY 83 69 62 VRB3 29.98F GROTON MOSUNNY 79 72 79 SW7 29.97S NEW HAVEN MOSUNNY 85 69 58 S8 29.96F CHESTER FAIR 84 70 61 S7 29.99S MERIDEN PTSUNNY 85 69 58 VRB6 29.95F WILLIMANTIC PTSUNNY 86 69 56 VRB6 29.97S HX 90 OXFORD PTSUNNY 81 70 69 VRB5 30.01F $$ MEZ002-015-021-024-NHZ003-005-008-011-012-014-VTZ005-008-011900- NORTHERN NEW ENGLAND CITY SKY/WX TMP DP RH WIND PRES REMARKS PORTLAND ME MOSUNNY 82 69 64 SE10 29.93F 6HR MIN TEMP: 69; 6HR MAX TEMP: 83; BANGOR ME PTSUNNY 83 69 62 S10 29.92S CONCORD NH PTSUNNY 84 65 52 S5 29.95S MANCHESTER NH PTSUNNY 86 65 49 VRB7 29.93S NASHUA NH PTSUNNY 88 67 49 CALM 29.94F HX 91 PORTSMOUTH NH MOSUNNY 86 67 52 W5 29.93S JAFFREY NH NOT AVBL KEENE NH SUNNY 82 63 51 W3 29.97S BURLINGTON VT MOSUNNY 85 63 47 W6 29.93F MT. WASHINGTON NOT AVBL $$ NYZ052-076-011900- EASTERN NEW YORK CITY SKY/WX TMP DP RH WIND PRES REMARKS ALBANY MOSUNNY 85 65 51 NW9 29.96F 6HR MIN TEMP: 71; 6HR MAX TEMP: 86; NEW YORK CITY PTSUNNY 86 69 56 SW12 29.96F HX 90 $$ ANZALL-011900- MARINE OBSERVATIONS STATION/POSITION TIME TEMP WIND PRES VSBY WAVE AIR SEA DIR/SP/G HT/PER (UTC) (F) (DEG/KT/KT) (MB) (MI) (FT/S) BOSTON BUOY 1750 72 71 120/ 8/ 8 1014.2F 1/ 9 BUZZARDS BAY 1700 230/ 16/ 17 1015.6F NANTUCKET SOUND 1750 70 72 220/ 12/ 12 1014.6F 1/ 3 MASS BAY-STELLWA 1704 70 66 160/ 6/ 6 N/A 1 7/8 1/11 ISLE OF SHOALS 1800 77 160/ 9/ 9 1013.4F S OF BLOCK IS 1708 69 N/A 4/ 6 $$ ......................KEY......................... SKY/WX - SKY CONDITION/PRESENT WEATHER TMP - TEMPERATURE IN FAHRENHEIT DWPT - DEWPOINT IN FAHRENHEIT RH - RELATIVE HUMIDITY IN PERCENT WIND - DIRECTION AND SPEED IN MPH PRES - MEAN SEA LEVEL PRESSURE IN INCHES OF HG WCI - WIND CHILL INDEX VSB - VISIBILITY IN MILES HX - HEAT INDEX TC - TEMPERATURE IN CELSIUS VRB - VARIABLE WIND DIRECTION N/A - NOT AVAILABLE

USA.gov is the U.S. government's official web portal to all federal, state and local government web resources and services.